Dewpoint
54 54 54 54 54 55 55 55 55 55 55 55 55 55 56 56 56 50 33 35 41 72 71 64 65 63 62 60 62 60 52 45 43 45 47 54 54 57 58 56 56 57 57 61 64
54 54 54 54 54 54 54 54 55 55 55 55 55 55 55 56 46 32 46 62 62 75 58 60 61 60 58 56 58 56 50 43 45 44 42 49 53 57 55 55 54 57 59 62 63
54 54 54 54 54 54 54 54 54 54 54 55 55 55 55 54 36 16 62 63 68 71 51 56 56 56 51 54 55 53 49 46 44 44 43 45 53 56 53 53 54 57 60 62 62
53 53 53 53 53 53 53 53 54 53 54 54 54 54 55 47 15 35 70 63 71 51 49 51 53 52 49 51 53 51 51 50 46 44 43 41 50 54 54 52 55 58 60 61 61
52 53 53 53 53 53 53 54 54 53 53 54 54 53 49 32 15 36 65 63 62 50 48 49 51 48 43 46 49 52 47 45 45 44 42 38 45 49 53 55 55 59 60 60 60
52 53 53 54 53 53 54 54 53 53 53 54 53 53 40 20 11 14 43 50 54 50 48 47 49 46 42 43 46 45 48 44 34 34 37 34 41 48 51 56 57 59 59 59 60
53 53 54 54 54 54 53 53 52 53 56 57 54 49 39 21 13 19 44 51 54 52 47 46 46 47 40 41 35 42 38 31 29 31 32 32 34 45 50 57 57 58 58 59 59
53 53 54 54 54 53 52 52 52 56 57 55 55 47 33 26 25 31 41 49 55 52 45 47 47 47 39 31 27 29 29 27 31 32 30 33 34 44 51 56 57 58 58 59 59
53 53 53 53 53 52 51 52 54 57 55 55 50 44 29 41 20 19 43 43 51 49 47 45 45 40 39 34 26 24 25 29 31 31 33 36 35 39 51 54 55 58 58 59 59
53 53 53 52 52 51 51 51 56 56 53 52 46 39 31 23 25 15 39 34 48 46 40 38 37 27 30 30 25 25 24 26 29 31 31 32 35 36 47 50 53 57 58 58 58
52 52 52 51 51 50 45 37 39 44 37 39 39 32 31 26 33 17 23 34 42 43 30 29 23 21 20 24 23 24 24 26 27 31 30 32 33 35 44 50 50 56 58 58 59
52 52 51 51 50 50 40 30 32 32 28 26 26 30 38 36 31 21 22 30 30 33 27 26 23 21 20 18 21 22 22 23 27 28 27 30 30 34 40 49 51 54 57 58 58
52 51 51 50 50 42 35 35 36 35 28 24 26 24 26 30 29 26 17 24 27 26 23 22 21 21 19 22 21 21 21 22 24 27 26 27 29 31 31 39 48 51 55 57 58
52 51 50 50 41 36 32 34 37 37 25 15 21 25 25 27 26 28 15 21 21 24 22 21 22 22 21 21 20 19 19 19 20 23 25 28 26 33 33 37 42 47 52 55 57
52 50 49 49 40 33 35 36 38 37 8 21 18 23 24 25 24 24 27 13 14 18 21 22 21 21 21 22 21 18 13 16 18 19 23 26 25 29 32 33 35 42 47 53 56
51 50 49 41 37 34 35 37 38 23 8 18 16 17 20 24 22 24 27 19 17 17 20 20 19 20 22 22 22 20 16 15 18 16 18 25 25 27 29 35 35 42 48 53 55
50 48 46 39 33 35 35 34 18 9 15 21 19 20 18 17 22 21 24 25 24 20 20 21 19 21 21 22 23 21 19 16 13 13 15 23 23 28 29 31 34 35 40 52 55
48 47 43 36 34 35 34 24 13 11 22 25 24 22 21 19 18 18 23 22 24 21 18 18 17 19 22 22 22 22 18 11 17 9 11 22 22 25 29 31 31 34 34 46 54
48 33 32 31 34 37 29 11 7 27 27 26 23 22 20 22 22 20 20 22 22 23 22 19 19 17 20 21 22 23 20 14 10 15 12 12 20 23 27 29 30 31 33 37 51
39 32 29 31 33 34 24 18 22 26 27 26 24 24 25 24 24 22 19 27 23 23 27 24 22 19 18 20 20 20 21 14 12 18 17 11 18 19 27 30 31 32 32 36 45
34 27 29 31 29 22 15 18 20 21 27 25 25 25 26 26 26 23 24 28 29 27 33 27 24 22 21 20 19 18 19 18 14 13 12 12 11 22 27 31 31 32 34 35 42
32 20 31 31 20 21 19 23 27 21 24 26 26 23 26 27 27 26 28 30 29 32 31 29 25 24 20 20 19 19 20 20 15 23 16 15 10 15 21 24 31 31 34 35 39
32 29 31 29 20 21 23 22 22 23 27 29 30 28 28 27 27 28 30 30 29 32 33 32 25 23 23 21 23 20 20 20 18 19 26 16 14 21 27 29 33 33 34 38 41
32 23 24 27 28 25 24 22 22 23 25 25 37 34 30 23 27 28 27 27 27 29 39 34 28 27 20 25 24 23 21 21 19 18 19 19 19 22 22 26 29 28 31 32 41
33 27 31 24 26 28 28 23 22 23 24 24 34 36 35 28 24 24 28 27 26 32 29 30 30 30 28 26 25 22 20 21 22 23 22 20 22 24 26 27 29 30 32 32 35
32 32 34 32 30 27 27 25 22 24 24 24 26 30 30 34 30 29 29 28 27 29 28 27 30 30 28 26 24 23 24 23 22 22 23 23 23 25 27 30 31 31 33 33 34
40 39 40 32 29 27 25 25 26 26 26 26 26 25 24 29 32 31 29 28 29 29 28 28 26 29 26 25 24 24 25 24 25 25 25 25 28 29 29 30 31 31 31 32 35
Lifted_Index
16 16 16 17 17 17 17 17 17 17 17 17 17 17 17 17 16 15 14 14 11 4 0 -0 -1 -2 -2 -3 -3 -4 -3 -2 -2 -1 -1 -2 -2 -3 -3 -2 -2 -2 -3 -3 -3
17 17 17 17 17 17 17 17 16 16 17 17 17 17 17 16 15 14 14 13 9 3 1 1 -0 -1 -1 -2 -3 -3 -3 -2 -1 -1 -0 -1 -2 -3 -2 -2 -2 -3 -3 -3 -3
18 18 18 18 17 17 17 17 17 16 16 16 17 17 17 16 14 12 12 10 7 4 4 3 1 1 -0 -1 -2 -3 -3 -2 -1 -0 0 -0 -2 -2 -2 -2 -3 -3 -3 -3 -3
18 18 18 18 18 18 18 17 17 16 15 15 16 16 16 14 12 10 9 8 6 6 6 4 3 2 1 -0 -2 -2 -2 -2 -1 -0 1 0 -1 -2 -2 -2 -3 -3 -3 -3 -3
19 19 18 18 18 18 18 18 17 16 15 15 15 15 15 13 12 11 9 7 7 7 6 5 3 3 2 1 -1 -2 -2 -1 -0 0 1 1 -0 -2 -2 -2 -3 -3 -3 -3 -3
19 19 19 19 18 18 18 18 17 16 15 14 14 14 13 12 14 13 10 8 6 6 6 5 4 4 3 2 1 -0 -0 1 1 1 2 2 0 -1 -3 -3 -3 -3 -3 -3 -3
19 19 19 19 19 19 18 18 17 15 14 14 14 13 11 12 14 14 11 7 6 5 6 6 5 5 4 4 3 2 2 2 2 2 2 1 -0 -2 -3 -4 -3 -3 -3 -3 -3
19 19 19 19 19 19 19 18 16 14 14 14 13 12 11 12 14 13 10 7 6 6 6 6 6 6 6 6 6 4 3 3 2 2 1 1 -1 -2 -4 -4 -4 -4 -4 -3 -3
19 19 19 19 20 20 20 18 15 14 14 13 13 11 10 11 13 13 11 8 7 6 7 7 7 7 8 7 7 6 4 3 2 2 1 0 -1 -2 -3 -4 -4 -4 -4 -4 -3
19 19 19 20 20 21 20 18 15 14 13 13 11 10 10 11 12 13 12 10 8 7 8 9 8 8 8 8 7 6 5 4 3 2 2 1 -0 -1 -2 -4 -4 -4 -4 -4 -4
18 18 19 19 20 21 20 18 16 15 13 12 11 10 10 11 12 13 13 11 9 8 9 9 8 7 8 8 8 6 5 4 3 3 2 1 0 -0 -2 -3 -4 -4 -4 -4 -4
17 18 18 19 20 20 19 18 18 16 13 12 11 10 11 11 11 13 13 12 10 9 9 8 7 8 9 9 8 7 6 5 3 3 3 2 1 0 -1 -2 -3 -4 -4 -4 -4
17 18 18 19 19 18 18 19 19 17 13 10 11 11 11 11 10 12 13 12 10 9 8 7 8 9 9 9 8 7 6 5 4 3 3 2 1 1 0 -1 -2 -3 -4 -4 -4
18 18 19 19 18 18 18 18 19 16 11 9 10 11 12 11 10 11 12 12 11 9 9 8 8 9 8 8 8 7 6 6 5 4 3 2 2 1 1 0 -1 -2 -4 -4 -4
18 19 19 19 18 18 18 18 17 13 8 8 11 12 12 11 10 11 12 12 11 10 10 9 9 9 8 7 8 7 7 7 6 4 3 3 3 2 1 1 0 -1 -3 -4 -4
18 19 19 19 18 18 18 17 15 10 7 8 11 11 11 10 11 11 11 11 10 9 9 9 9 9 8 8 9 9 8 6 5 4 3 4 4 3 2 2 1 -1 -2 -3 -4
15 16 17 17 17 18 17 16 12 9 8 10 10 10 10 10 10 10 10 10 9 8 8 8 9 9 9 9 9 9 8 5 3 2 3 4 4 4 3 3 2 1 -1 -3 -4
11 11 12 13 14 15 15 13 11 10 11 11 11 9 8 9 10 9 9 9 9 8 7 7 7 9 10 9 9 9 8 5 2 2 3 4 4 5 4 3 3 2 0 -1 -3
8 8 8 9 9 9 10 10 10 11 13 12 11 9 8 8 8 8 8 8 9 8 7 6 7 8 9 9 9 8 7 5 4 3 3 4 5 5 5 4 3 3 2 0 -1
7 6 6 5 5 4 4 5 7 10 12 11 10 9 8 8 8 7 8 8 8 8 8 7 7 8 9 9 9 8 7 6 5 3 2 3 4 5 5 5 4 3 2 1 0
6 5 4 4 2 2 2 2 4 7 9 9 9 9 9 8 7 7 7 8 8 8 8 8 7 7 8 8 8 8 8 7 5 4 3 2 4 5 5 5 4 4 3 2 1
5 4 4 3 1 1 1 1 2 4 5 7 8 8 8 8 7 6 7 8 9 9 8 8 7 7 7 8 8 8 8 7 5 5 4 3 4 5 6 5 4 4 3 2 2
4 4 3 2 1 1 1 1 1 2 3 4 5 6 7 7 6 6 7 8 9 9 8 8 7 6 6 6 7 8 8 7 6 5 5 4 5 6 6 6 5 4 4 3 3
4 3 2 2 1 1 0 0 1 1 2 3 4 5 5 5 5 6 7 8 9 9 9 8 7 6 5 5 7 7 7 7 7 6 6 5 6 7 7 6 6 6 5 4 4
4 3 3 2 1 1 0 0 0 1 1 2 2 3 4 4 4 5 6 8 9 9 9 8 7 6 6 6 7 7 7 7 7 7 7 7 7 7 8 7 7 7 6 5 5
4 4 3 3 2 1 0 0 0 0 1 1 1 2 2 3 4 5 6 8 8 9 9 8 7 7 6 6 7 7 8 8 8 8 7 7 7 8 8 8 7 7 7 6 5
4 4 4 3 2 1 1 1 1 1 0 0 1 2 2 3 4 5 6 8 9 9 9 8 8 7 6 6 6 7 8 8 8 8 7 7 7 8 8 8 8 7 7 6 6